NOAA 16 DEB

Satellite information

Favourite Embed

Satellite Type and Status

DEBRISIN ORBIT

Key statistics

Satellite NOAA 16 DEB at a glance.

Uptime

8995

Days in orbit

Revolutions

≈ 14.6

Per day

Orbit

SSO

Sun Synchronous Orbit

Inclination

98.7

Latest

Satellite identification and parameters

Extended collection of information and parameters for NOAA 16 DEB.

Object identification

Identified? True

Debris? True

Object name: NOAA 16 DEB

International designator: 2000-055QM

Object number (NORAD): 42345

Object ID (CCSDS): 42345

Country: UNITED STATES OF AMERICA (US)

Current information (Y/N): Y

RCS size: SMALL

Orbital parameters

Period: 98.437 minutes

Inclination: 98.7117 deg

SMA: 7062.098 km

Apoapsis: 707.036 km

Periapsis: 660.89 km

RAAN: 243.8056 deg

Eccentricy: 0.0032672

Argument of periapsis: 183.9726 deg

Mean anomaly: 176.122 deg

Mean motion: 14.62857985 rev/day

Mean motion (dot): 0.00029622 rev/day2

B* drag term: 0.0057396 1/REarth

Two-line elements (TLE)

Creation date: May 6, 2025, 2:56 p.m.

Reference frame: TEME

Reference center: EARTH

Epoch: May 5, 2025, 1:37 a.m. UTC

TLE line 0: 0 NOAA 16 DEB

TLE line 1: 1 42345U 00055QM 25125.06788675 .00029622 00000-0 57396-2 0 9993

TLE line 2: 2 42345 98.7117 243.8056 0032672 183.9726 176.1220 14.62857985470349

Live tracking on map

Real-time ground track for satellite NOAA 16 DEB.

In-orbit conjunctions

A list of the most updated potential collisions computed for object NOAA 16 DEB.

Target Orbit TCA Probability of collision Miss distance Type
IRIDIUM 33 DEB LEO 2024-11-15 02:02:29 0.0004552588 678.0 (m) DEBRIS
FENGYUN 1C DEB SSO 2024-07-19 03:52:42 0.0001053122 55.0 (m) DEBRIS

Associated space launch

The NOAA K, L and M POES satellites begin the fifth generation of improved environmental monitoring in support of NOAA missions. The instrument payload has significant improvements and additions/deletions. The instrument changes have effected the spacecraft subsystems and data formats.

NOAA 16 DEB was lifted into orbit during the mission ‘Titan II SLV | NOAA 16’, on board a Titan II SLV space rocket.

The launch took place on Sept. 21, 2000, 10:22 a.m. from Space Launch Complex 4W.

For more information about the launch, click the button.

Launch to space Titan II SLV | NOAA 16
Titan II SLV | NOAA 16

Agency: N/A

Status: Launch Successful

Launch date: Sept. 21, 2000, 10:22 a.m. UTC

Rocket: Titan II SLV

Launch pad: Space Launch Complex 4W

Location: Vandenberg SFB, CA, USA

...

Latest news about this satellite

There are no fresh news available about this satellite. Check back as we update our databases every day.


Newsletter sign-up

Weekly statistics, charts and insights to help you stay on top of the space industry.